Regional Weather Roundup
Issued by NWS

Home | Current Version | Previous Version | Graphics & Text | Print | Product List | Glossary On
Versions: 1 2 3 4 5 6 7 8 9 10 11 12 13 14 15 16 17 18 19 20 21 22 23 24 25 26 27 28 29 30 31 32 33 34 35 36 37 38 39 40 41 42 43 44 45 46 47 48 49 50
000
ASUS43 KLMK 180910
RWRKY
KENTUCKY REGIONAL WEATHER ROUNDUP
NATIONAL WEATHER SERVICE LOUISVILLE KY
400 AM EST THU JAN 18 2018

NOTE "FAIR" INDICATES FEW OR NO CLOUDS BELOW 12,000 FEET
WITH NO SIGNIFICANT WEATHER AND/OR OBSTRUCTIONS TO VISIBILITY.

KYZ001>023-026-027-061>063-070>075-181000-
WESTERN AND SOUTH CENTRAL KENTUCKY

CITY           SKY/WX    TMP DP  RH WIND       PRES   REMARKS
PADUCAH        FAIR       9   5  84 SW7       30.52S WCI  -2
HENDERSON      FAIR       9   5  84 SW9       30.49F WCI  -4
OWENSBORO      FAIR       7   4  87 SW7       30.50S WCI  -5
HOPKINSVILLE   FAIR       7   4  86 SW7       30.52S WCI  -5
BOWLING GREEN  FAIR       8   5  87 SW5       30.53R WCI   0
GLASGOW        FAIR       1  -2  88 CALM      30.50F
$$

KYZ024-025-028>034-038-045-046-053-181000-
NORTH CENTRAL KENTUCKY

CITY           SKY/WX    TMP DP  RH WIND       PRES   REMARKS
LOUISVILLE/SDF FAIR      14   7  73 SW7       30.48S WCI   4
LOUISVILLE/LOU FAIR       9   6  88 S5        30.48S WCI   1
FORT KNOX      FAIR       4   0  84 S5        30.45R WCI  -5
$$

KYZ035>037-039>044-047>052-055>060-089>105-181000-
NORTHEAST KENTUCKY

CITY           SKY/WX    TMP DP  RH WIND       PRES   REMARKS
LEXINGTON      FAIR       7   2  80 SW8       30.44S WCI  -6
COVINGTON      FAIR      10   7  87 SW9       30.38F WCI  -3
FRANKFORT      FAIR       6   1  80 SW7       30.44S WCI  -6
$$

KYZ054-064>069-076>088-106>120-181000-
SOUTHEAST KENTUCKY

CITY           SKY/WX    TMP DP  RH WIND       PRES   REMARKS
JACKSON        FAIR       7   4  87 SW5       30.40F WCI  -2
LONDON         CLOUDY     4   0  83 CALM      30.45S
SOMERSET       FAIR       3   1  92 CALM      30.49F
MIDDLESBORO    FAIR       7   5  92 CALM      30.46S
MONTICELLO     FAIR      -5  -9  83 W9        30.51R WCI -22
$$





USA.gov is the U.S. government's official web portal to all federal, state and local government web resources and services.